Back to catalog

STARLINK-37946

AliveCommunicationsSSO
NORAD 69672·PAYLOAD·🇺🇸 United States

Launched Jun 21, 2026 from Vandenberg Space Force Base

Loading…

Next Passes (next 24 hours)

TLE

FreshSource: CelesTrak SupGP

Epoch: Sep 14, 2026, 16:11 UTC

1 69672C 26143Z   26257.67479167 -.00020599  00000+0 -63930-3 0  2572
2 69672  97.2836 300.9988 0001076 117.6919 226.5725 15.33457605    11

Track STARLINK-37946 in real time with AllMySat

Download on the App Store